GW4076 Weather Reports


time (UTC)temp
F
wind
direction
speed
knots
gust
knots
rain 1hr
in
rain 24hr
in
rain mn
in
humidity
%
barometer
mb
20260507140543 55 35 0.9 4.3 0.00 0.03 0.00 50 1012.6
20260507135546 54 302 0.9 4.3 0.00 0.06 0.00 53 1012.8
20260507135044 54 94 0.0 4.3 0.00 0.06 0.00 52 1012.9
20260507134549 54 151 0.9 2.6 0.00 0.06 0.00 54 1012.9
20260507134043 54 271 0.0 2.6 0.00 0.06 0.00 58 1013.0
20260507133544 53 271 0.0 2.6 0.00 0.06 0.00 60 1013.1
20260507133057 53 0 0.0 3.5 0.00 0.06 0.00 58 1013.1
20260507132541 53 0 0.0 5.2 0.00 0.06 0.00 58 1013.1
20260507132041 53 265 0.9 5.2 0.00 0.06 0.00 60 1013.1
20260507131616 52 327 0.0 4.3 0.00 0.06 0.00 60 1013.0
20260507131041 52 327 0.0 4.3 0.00 0.06 0.00 61 1013.2
20260507130541 52 327 0.9 4.3 0.00 0.06 0.00 62 1013.2
20260507130106 52 249 0.9 3.5 0.00 0.06 0.00 61 1013.1
20260507125543 52 0 0.0 3.5 0.00 0.12 0.00 62 1013.2
20260507125041 52 337 0.0 3.5 0.00 0.12 0.00 62 1013.1
20260507124600 51 337 0.0 3.5 0.00 0.12 0.00 67 1013.1
20260507124041 51 0 0.0 2.6 0.00 0.12 0.00 64 1013.1
20260507123544 51 0 0.0 3.5 0.00 0.12 0.00 65 1013.1
20260507123050 51 337 0.0 3.5 0.00 0.12 0.00 64 1013.0
20260507122541 51 0 0.0 3.5 0.00 0.12 0.00 65 1013.1
20260507122044 51 0 0.0 1.7 0.00 0.12 0.00 69 1013.0
20260507121548 51 0 0.0 1.7 0.00 0.12 0.00 67 1012.9
20260507121044 51 0 0.0 1.7 0.00 0.12 0.00 68 1012.9
20260507120540 51 0 0.0 1.7 0.00 0.12 0.00 66 1012.9
20260507120048 50 0 0.0 1.7 0.00 0.12 0.00 66 1012.8
20260507115542 50 337 0.0 0.9 0.00 0.18 0.00 67 1012.8
20260507115041 50 0 0.0 1.7 0.00 0.18 0.00 70 1012.8
20260507114551 50 0 0.0 1.7 0.00 0.18 0.00 69 1012.8
20260507114046 50 0 0.0 1.7 0.00 0.18 0.00 70 1012.7
20260507113545 50 0 0.0 1.7 0.00 0.18 0.00 66 1012.7
20260507113135 50 0 0.0 1.7 0.00 0.18 0.00 66 1012.8
20260507112548 50 0 0.0 1.7 0.00 0.18 0.00 65 1012.9
20260507112044 50 0 0.0 1.7 0.00 0.18 0.00 65 1012.9
20260507111559 50 0 0.0 1.7 0.00 0.18 0.00 65 1012.9
20260507111044 50 352 0.0 1.7 0.00 0.18 0.00 65 1012.8
20260507110541 50 0 0.0 1.7 0.00 0.18 0.00 64 1012.7
20260507110054 50 352 0.0 2.6 0.00 0.18 0.00 65 1012.6
20260507105540 50 0 0.0 2.6 0.00 0.19 0.00 66 1012.4
20260507105041 50 0 0.0 2.6 0.00 0.19 0.00 64 1012.3
20260507104605 50 0 0.0 2.6 0.00 0.19 0.00 63 1012.3
20260507104042 50 0 0.0 2.6 0.00 0.19 0.00 64 1012.2
20260507103546 50 0 0.9 2.6 0.00 0.19 0.00 64 1012.0
20260507103055 50 0 0.0 1.7 0.00 0.19 0.00 65 1012.0
20260507102544 50 0 0.0 1.7 0.00 0.19 0.00 63 1012.1
20260507102044 51 0 0.0 1.7 0.00 0.19 0.00 63 1012.1
20260507101559 51 0 0.0 2.6 0.00 0.19 0.00 63 1012.1
20260507101043 51 0 0.0 4.3 0.00 0.19 0.00 64 1012.0
20260507100543 51 0 0.0 4.3 0.00 0.19 0.00 64 1011.8
20260507100059 51 290 0.0 3.5 0.00 0.19 0.00 67 1011.7
20260507095547 51 0 0.0 3.5 0.00 0.19 0.00 67 1011.6
20260507095043 51 0 0.0 4.3 0.00 0.19 0.00 68 1011.6
20260507094555 51 0 0.9 4.3 0.00 0.19 0.00 70 1011.4
20260507094046 51 0 0.0 0.9 0.00 0.19 0.00 71 1011.6
20260507093543 51 0 0.0 0.9 0.00 0.19 0.00 72 1011.5
20260507093052 51 266 0.0 0.9 0.00 0.19 0.00 74 1011.7
20260507092544 51 0 0.0 0.9 0.00 0.19 0.00 73 1011.6
20260507092047 51 0 0.0 1.7 0.00 0.19 0.00 72 1011.7
20260507091555 51 0 0.0 1.7 0.00 0.19 0.00 70 1011.8
20260507091044 51 0 0.0 1.7 0.00 0.19 0.00 70 1011.7
20260507090544 51 0 0.0 6.1 0.00 0.19 0.00 71 1011.7
20260507090049 52 0 0.0 6.1 0.00 0.19 0.00 70 1011.8
20260507085543 52 10 0.0 2.6 0.00 0.19 0.00 71 1011.8
20260507085044 52 0 0.0 2.6 0.00 0.19 0.00 71 1011.7
20260507084557 52 0 0.0 2.6 0.00 0.19 0.00 71 1011.6
20260507084043 52 0 0.0 1.7 0.00 0.19 0.00 72 1011.5
20260507083543 52 0 0.0 1.7 0.00 0.19 0.00 72 1011.6
20260507083053 52 0 0.0 1.7 0.00 0.19 0.00 73 1011.7
20260507082544 52 0 0.0 1.7 0.00 0.19 0.00 75 1011.6
20260507082044 52 0 0.0 1.7 0.00 0.19 0.00 75 1011.4
20260507081554 52 0 0.0 0.0 0.00 0.19 0.00 76 1011.4
20260507081044 52 0 0.0 0.0 0.00 0.19 0.00 77 1011.3
20260507080545 52 0 0.0 2.6 0.00 0.19 0.00 77 1011.2
20260507080056 52 0 0.0 2.6 0.00 0.19 0.00 77 1011.1
20260507075546 52 0 0.0 0.9 0.00 0.19 0.00 78 1010.8
20260507075044 52 0 0.0 2.6 0.00 0.19 0.00 76 1010.8
20260507074557 52 0 0.0 2.6 0.00 0.19 0.00 76 1011.0
20260507074042 52 0 0.0 1.7 0.00 0.19 0.00 76 1011.0
20260507073544 52 0 0.0 3.5 0.00 0.19 0.00 76 1011.0
20260507073056 52 0 0.0 3.5 0.00 0.19 0.00 76 1011.1
20260507072543 53 111 0.0 3.5 0.00 0.19 0.00 77 1010.9
20260507072047 53 0 0.0 3.5 0.00 0.19 0.00 78 1011.0
20260507071553 53 0 0.9 3.5 0.00 0.19 0.00 77 1011.0
20260507071042 53 51 0.0 3.5 0.00 0.19 0.00 77 1011.2
20260507070542 53 0 0.0 3.5 0.00 0.19 0.00 77 1011.2
20260507065543 53 306 0.0 4.3 0.00 0.19 0.00 77 1011.2
20260507065043 53 0 0.9 4.3 0.00 0.19 0.00 76 1011.3
20260507064553 53 0 0.0 1.7 0.00 0.19 0.00 78 1011.3
20260507064043 53 0 0.0 1.7 0.00 0.19 0.00 79 1011.4
20260507063544 53 0 0.0 1.7 0.00 0.19 0.00 78 1011.3
20260507063054 53 115 0.0 2.6 0.00 0.19 0.00 79 1011.3
20260507062543 53 0 0.0 2.6 0.00 0.19 0.00 78 1011.4
20260507062045 53 0 0.9 2.6 0.00 0.19 0.00 77 1011.5
20260507061550 53 156 0.0 2.6 0.00 0.19 0.00 80 1011.5
20260507061043 54 0 0.0 0.9 0.00 0.19 0.00 80 1011.4
20260507060542 54 0 0.0 0.9 0.00 0.19 0.00 81 1011.6
20260507060050 54 0 0.0 1.7 0.00 0.19 0.00 81 1011.5
20260507055543 54 0 0.0 2.6 0.00 0.19 0.00 80 1011.4
20260507055044 54 0 0.0 2.6 0.00 0.19 0.00 80 1011.4
20260507054548 54 0 0.0 1.7 0.00 0.19 0.00 80 1011.3
20260507054044 54 0 0.0 1.7 0.00 0.19 0.00 80 1011.3
20260507053543 54 0 0.0 2.6 0.00 0.19 0.00 80 1011.2
20260507053045 54 0 0.0 2.6 0.00 0.19 0.00 79 1011.3
20260507052542 54 0 0.0 0.9 0.00 0.19 0.00 80 1011.3
20260507052043 54 0 0.0 1.7 0.00 0.19 0.00 80 1011.3
20260507051601 54 0 0.0 1.7 0.00 0.19 0.00 80 1011.4
20260507051042 54 0 0.0 2.6 0.00 0.19 0.00 80 1011.4
20260507050545 54 0 0.0 3.5 0.00 0.19 0.00 80 1011.3
20260507050111 54 0 0.0 3.5 0.00 0.19 0.00 79 1011.4
20260507045543 54 180 0.0 3.5 0.00 0.19 0.00 80 1011.3
20260507045043 54 0 0.0 2.6 0.00 0.19 0.00 81 1011.4
20260507044559 54 157 0.0 2.6 0.00 0.19 0.00 81 1011.2
20260507044046 54 224 0.0 2.6 0.00 0.19 0.00 81 1011.2
20260507043542 54 0 0.0 5.2 0.00 0.19 0.00 81 1010.9
20260507043049 54 0 0.0 5.2 0.00 0.19 0.00 81 1011.2
20260507042545 54 126 0.0 6.1 0.00 0.19 0.00 82 1011.1
20260507042043 54 0 0.9 6.1 0.00 0.19 0.00 83 1011.3
20260507041552 54 0 0.0 5.2 0.00 0.19 0.00 83 1011.5
20260507041042 54 310 0.0 5.2 0.00 0.19 0.00 83 1011.4
20260507040543 55 0 0.0 5.2 0.00 0.19 0.00 83 1011.2
20260507040050 55 344 0.9 4.3 0.00 0.19 0.00 83 1011.2
20260507035542 55 78 0.0 2.6 0.00 0.19 0.19 83 1011.3
20260507035045 55 18 0.0 2.6 0.00 0.19 0.19 83 1011.1
20260507034559 55 0 0.0 3.5 0.00 0.19 0.19 83 1010.9
20260507034042 55 0 0.9 3.5 0.00 0.19 0.19 83 1011.1
20260507033542 55 319 0.9 7.0 0.01 0.19 0.19 83 1011.1
20260507033053 55 0 0.9 7.0 0.01 0.19 0.19 83 1011.0
20260507032543 55 294 1.7 6.1 0.01 0.19 0.19 83 1011.3
20260507032043 55 301 0.9 6.1 0.01 0.19 0.19 83 1011.1
20260507031552 55 296 1.7 6.1 0.01 0.19 0.19 83 1011.0
20260507031046 56 0 0.0 7.0 0.01 0.19 0.19 83 1011.0
20260507030543 56 199 1.7 7.8 0.01 0.19 0.19 82 1011.2
20260507030051 56 0 1.7 7.8 0.01 0.19 0.19 83 1011.0
20260507025545 56 0 0.0 4.3 0.01 0.19 0.19 83 1011.0
20260507025043 56 0 0.0 3.5 0.01 0.19 0.19 83 1010.7
20260507024551 57 0 0.0 5.2 0.01 0.19 0.19 82 1010.9
20260507024044 57 0 0.0 6.1 0.01 0.19 0.19 81 1011.0
20260507023545 57 331 0.9 6.1 0.00 0.18 0.18 80 1010.7
20260507023051 57 232 0.0 4.3 0.00 0.18 0.18 80 1010.9
20260507022542 57 229 0.9 4.3 0.00 0.18 0.18 80 1010.7
20260507022043 57 0 0.9 3.5 0.00 0.18 0.18 80 1010.7
20260507021559 58 0 0.9 3.5 0.00 0.18 0.18 80 1010.6
20260507021043 58 182 0.9 7.0 0.00 0.18 0.18 81 1010.3
20260507020543 58 0 1.7 7.0 0.00 0.18 0.18 80 1010.6
20260507020052 58 0 1.7 6.1 0.00 0.18 0.18 80 1010.3
20260507015542 59 348 0.0 4.3 0.00 0.18 0.18 81 1010.4
20260507015043 59 0 0.0 7.8 0.00 0.18 0.18 81 1010.3
20260507014557 59 234 0.9 7.8 0.00 0.18 0.18 81 1010.5
20260507014043 59 296 0.0 6.1 0.00 0.18 0.18 82 1010.7
20260507013544 59 296 0.0 9.6 0.00 0.18 0.18 81 1010.2
20260507013047 59 296 1.7 9.6 0.00 0.18 0.18 81 1010.1
20260507012546 59 188 0.9 5.2 0.00 0.18 0.18 81 1010.2
20260507012042 59 222 0.0 4.3 0.00 0.18 0.18 80 1010.1
20260507011556 59 0 0.9 5.2 0.00 0.18 0.18 80 1009.9
20260507011042 59 288 0.9 7.8 0.00 0.18 0.18 80 1010.1
20260507010542 60 0 0.0 7.8 0.00 0.18 0.18 81 1010.3
20260507010047 60 223 0.9 7.8 0.00 0.18 0.18 81 1010.2
20260507005542 60 254 0.9 8.7 0.00 0.18 0.18 81 1010.6
20260507005042 60 0 0.9 8.7 0.00 0.18 0.18 82 1010.7
20260507004550 60 0 0.9 8.7 0.00 0.18 0.18 82 1010.5
20260507004043 61 291 1.7 7.0 0.00 0.18 0.18 82 1010.2
20260507003543 61 0 0.0 4.3 0.00 0.18 0.18 82 1010.1
20260507003051 61 0 0.9 5.2 0.00 0.18 0.18 81 1010.0
20260507002542 61 0 1.7 6.1 0.00 0.18 0.18 81 1010.4
20260507002042 61 0 1.7 11.3 0.00 0.18 0.18 82 1010.2
20260507001553 62 313 1.7 11.3 0.00 0.18 0.18 83 1010.0
20260507001042 62 328 0.9 7.8 0.00 0.18 0.18 85 1010.0
20260507000545 62 0 1.7 7.8 0.00 0.18 0.18 85 1009.8
20260507000054 62 224 1.7 7.8 0.00 0.18 0.18 85 1009.8
20260506235543 63 234 0.0 7.0 0.00 0.18 0.18 86 1009.7
20260506235041 63 0 0.0 7.0 0.00 0.18 0.18 87 1009.5
20260506234615 63 348 0.9 6.1 0.00 0.18 0.18 87 1009.5
20260506234042 63 298 0.9 2.6 0.00 0.18 0.18 88 1009.5
20260506233543 63 300 0.0 5.2 0.00 0.18 0.18 88 1009.2
20260506233045 63 300 0.9 5.2 0.00 0.18 0.18 87 1008.8
20260506232545 63 0 0.0 5.2 0.00 0.18 0.18 88 1009.0
20260506232042 64 0 0.0 3.5 0.00 0.18 0.18 87 1008.8
20260506231551 64 0 0.0 3.5 0.00 0.18 0.18 87 1008.8
20260506231042 64 0 0.0 3.5 0.00 0.18 0.18 87 1009.0
20260506230544 64 271 0.0 2.6 0.00 0.18 0.18 88 1008.8
20260506230051 64 0 0.0 3.5 0.00 0.18 0.18 88 1008.9
20260506225542 64 307 0.0 6.1 0.00 0.18 0.18 88 1008.9
20260506225042 64 0 0.0 6.1 0.00 0.18 0.18 87 1008.8
20260506224550 64 286 0.0 5.2 0.00 0.18 0.18 88 1008.8
20260506224042 64 0 0.0 2.6 0.00 0.18 0.18 88 1008.8
20260506223543 65 0 0.0 5.2 0.00 0.18 0.18 88 1008.7
20260506223056 65 0 0.0 5.2 0.00 0.18 0.18 88 1008.7
20260506222543 65 286 0.0 2.6 0.00 0.18 0.18 88 1008.6
20260506222045 65 340 0.0 2.6 0.00 0.18 0.18 88 1008.6
20260506221551 65 0 0.0 0.9 0.00 0.18 0.18 88 1008.5
20260506221044 65 0 0.0 0.9 0.00 0.18 0.18 88 1008.7
20260506220542 65 0 0.0 0.9 0.00 0.18 0.18 88 1008.5
20260506220052 65 0 0.0 0.9 0.00 0.18 0.18 89 1008.3
20260506215542 65 0 0.0 1.7 0.00 0.18 0.18 90 1008.2
20260506215044 65 0 0.0 1.7 0.00 0.18 0.18 90 1008.4
20260506214553 65 0 0.0 1.7 0.00 0.18 0.18 91 1008.3
20260506214044 64 0 0.0 0.9 0.00 0.18 0.18 90 1008.5
20260506213545 64 0 0.0 0.9 0.00 0.18 0.18 90 1008.4
20260506213054 64 0 0.0 0.9 0.00 0.18 0.18 91 1008.4
20260506212543 64 0 0.0 0.9 0.00 0.18 0.18 92 1008.3
20260506212042 64 0 0.0 0.9 0.00 0.18 0.18 92 1008.2
20260506211551 64 0 0.0 0.9 0.00 0.18 0.18 92 1008.2
20260506211044 64 0 0.0 0.9 0.00 0.18 0.18 93 1007.9
20260506210547 63 0 0.0 0.9 0.00 0.18 0.18 92 1007.9
20260506210054 64 0 0.0 0.9 0.00 0.18 0.18 93 1007.9
20260506205543 63 0 0.0 0.0 0.00 0.18 0.18 93 1007.7
20260506205043 63 0 0.0 0.9 0.00 0.18 0.18 93 1007.9
20260506204600 63 0 0.0 0.9 0.00 0.18 0.18 93 1007.9
20260506204045 63 0 0.0 0.0 0.00 0.18 0.18 93 1007.8
20260506203544 63 0 0.0 0.9 0.00 0.18 0.18 93 1007.6
20260506203056 63 0 0.0 0.9 0.00 0.18 0.18 92 1007.8
20260506202542 63 0 0.0 0.9 0.00 0.18 0.18 92 1007.8
20260506202044 63 0 0.0 0.9 0.00 0.18 0.18 92 1007.8
20260506201556 63 0 0.0 0.9 0.01 0.18 0.18 92 1007.7
20260506201043 63 0 0.0 0.9 0.01 0.18 0.18 92 1007.7
20260506200543 63 0 0.0 0.9 0.01 0.18 0.18 92 1007.9
20260506200109 63 0 0.0 0.0 0.01 0.18 0.18 91 1007.8
20260506195542 64 0 0.0 0.0 0.01 0.18 0.18 91 1008.0
20260506195042 64 0 0.0 0.0 0.01 0.18 0.18 91 1007.8
20260506194611 64 0 0.0 0.0 0.01 0.18 0.18 90 1007.7
20260506194043 64 0 0.0 0.0 0.01 0.18 0.18 90 1007.8
20260506193544 64 0 0.0 0.9 0.01 0.18 0.18 89 1007.8
20260506193055 64 0 0.0 0.9 0.01 0.18 0.18 88 1008.0
20260506192544 64 0 0.0 1.7 0.01 0.18 0.18 88 1008.0
20260506192048 64 0 0.0 1.7 0.01 0.18 0.18 88 1008.1
20260506191552 64 0 0.0 5.2 0.00 0.17 0.17 87 1007.9
20260506191042 64 0 0.0 5.2 0.00 0.17 0.17 87 1008.0
20260506190545 64 0 0.0 5.2 0.00 0.17 0.17 87 1007.9
20260506190052 64 0 0.0 2.6 0.00 0.17 0.17 86 1008.0
20260506185544 64 0 0.0 3.5 0.00 0.17 0.17 86 1007.9
20260506185047 64 183 0.0 3.5 0.00 0.17 0.17 86 1008.0
20260506184602 64 0 0.9 3.5 0.00 0.17 0.17 85 1008.1
20260506184042 64 201 0.9 3.5 0.00 0.17 0.17 85 1008.1
20260506183541 64 186 0.9 3.5 0.00 0.17 0.17 85 1008.1
20260506183102 64 185 0.9 6.1 0.00 0.17 0.17 85 1008.3
20260506182543 64 185 0.9 6.1 0.00 0.17 0.17 86 1008.1
20260506182043 64 171 0.0 2.6 0.00 0.17 0.17 87 1008.2
20260506181553 64 68 0.0 2.6 0.00 0.17 0.17 87 1008.2
20260506181045 63 0 0.0 2.6 0.00 0.17 0.17 88 1008.3
20260506180547 63 11 0.0 2.6 0.00 0.17 0.17 88 1008.3
20260506180050 63 0 0.0 2.6 0.00 0.17 0.17 87 1008.4
20260506175546 63 190 0.9 4.3 0.00 0.17 0.17 86 1008.5
20260506175043 64 0 0.9 4.3 0.00 0.17 0.17 86 1008.4
20260506174549 64 160 0.9 4.3 0.00 0.17 0.17 85 1008.5
20260506174044 64 160 0.9 4.3 0.00 0.17 0.17 85 1008.4
20260506173542 64 190 0.9 4.3 0.00 0.17 0.17 85 1008.4
20260506173055 64 189 0.9 4.3 0.00 0.17 0.17 85 1008.3
20260506172543 64 194 0.9 4.3 0.00 0.17 0.17 85 1008.4
20260506172056 64 237 1.7 6.1 0.00 0.17 0.17 85 1008.3
20260506171559 64 194 1.7 6.1 0.00 0.17 0.17 85 1008.2
20260506171042 64 213 1.7 6.1 0.00 0.17 0.17 86 1008.3
20260506170542 64 0 1.7 5.2 0.00 0.17 0.17 86 1008.3
20260506170057 63 176 1.7 4.3 0.00 0.17 0.17 87 1008.4
20260506165544 63 240 1.7 5.2 0.00 0.17 0.17 88 1008.4
20260506165042 63 182 2.6 7.0 0.00 0.17 0.17 88 1008.4
20260506164557 62 169 1.7 7.0 0.00 0.17 0.17 90 1008.4
20260506164044 62 174 1.7 8.7 0.00 0.17 0.17 90 1008.4
20260506163542 61 179 2.6 8.7 0.00 0.17 0.17 91 1008.4
20260506163055 61 171 1.7 7.0 0.00 0.17 0.17 91 1008.4
20260506162544 61 155 1.7 7.0 0.00 0.17 0.17 92 1008.5
20260506162044 60 178 1.7 5.2 0.00 0.17 0.17 92 1008.6
20260506161603 60 167 0.9 4.3 0.00 0.17 0.17 92 1008.6
20260506161045 60 207 1.7 5.2 0.00 0.17 0.17 93 1008.4
20260506160545 60 134 1.7 5.2 0.00 0.17 0.17 93 1008.3
20260506160055 60 360 0.9 7.8 0.00 0.17 0.17 93 1008.5
20260506155542 59 162 1.7 7.8 0.00 0.17 0.17 93 1008.4
20260506155046 59 229 0.9 6.1 0.00 0.17 0.17 93 1008.5
20260506154556 59 0 1.7 6.1 0.00 0.17 0.17 93 1008.6
20260506154049 59 217 0.9 5.2 0.00 0.17 0.17 93 1008.7
20260506153543 59 174 0.9 5.2 0.00 0.17 0.17 93 1008.5
20260506153051 59 172 2.6 5.2 0.01 0.17 0.17 93 1008.4
20260506152542 59 0 1.7 6.1 0.01 0.17 0.17 93 1008.5
20260506152047 60 170 1.7 6.1 0.01 0.17 0.17 93 1008.5
20260506151605 59 136 0.9 3.5 0.01 0.17 0.17 93 1008.4
20260506151044 59 215 0.9 4.3 0.01 0.17 0.17 93 1008.3
20260506150544 59 141 0.9 4.3 0.01 0.17 0.17 93 1008.4
20260506150056 59 163 1.7 4.3 0.01 0.17 0.17 94 1008.9
20260506145546 59 159 0.9 5.2 0.01 0.17 0.17 94 1008.7
20260506145045 59 160 2.6 5.2 0.01 0.17 0.17 93 1008.5
20260506144550 59 161 0.9 5.2 0.01 0.17 0.17 93 1008.5
20260506144043 59 153 0.9 6.1 0.01 0.17 0.17 93 1008.7
20260506143543 59 88 0.0 6.1 0.02 0.17 0.17 93 1008.9
20260506143057 59 0 0.9 6.1 0.01 0.16 0.16 93 1009.1
20260506142543 59 0 0.9 3.5 0.01 0.16 0.16 93 1009.2
20260506142044 59 0 0.0 3.5 0.01 0.16 0.16 93 1009.1
20260506141607 59 20 0.9 2.6 0.02 0.16 0.16 93 1009.0
20260506141042 59 194 0.0 4.3 0.02 0.16 0.16 93 1009.1